Home   Weather   Fort Wayne   Past weeks

Flag for USA Past Weather in Fort Wayne, Indiana, USA — Yesterday and Last 2 Weeks

Now
47 °F

Clear.


Feels Like: 42 °F
Forecast: 48 / 67 °F
Wind: 9 mph from Southwest

Location: Fort Wayne International Airport

Current Time: Sep 27, 2016 at 6:31:31 AM

Latest Report: Sep 27, 2016 at 5:54 AM


Visibility: 10 mi

Pressure: 29.90 "Hg

Humidity: 77%

Dew Point: 40 °F

Location of Fort WayneLocation

Past Weather in Fort Wayne — Graph

°F

Fort Wayne Temperature Yesterday

Maximum temperature yesterday: 72 °F (at 12:54 AM)
Minimum temperature yesterday: 51 °F (at 10:54 PM)
Average temperature yesterday: 64 °F

High & Low Weather Summary for the Past Weeks

 TemperatureHumidityPressure
High88 °F (Sep 22, 3:54 PM)97% (Sep 14, 7:54 AM)30.28 "Hg (Sep 14, 7:54 AM)
Low48 °F (Sep 27, 2:54 AM)28% (Sep 26, 5:54 PM)29.88 "Hg (Sep 26, 4:54 AM)
Average69 °F74%30.08 "Hg
* Reported Sep 12 4:54 AM — Sep 27 4:54 AM, Fort Wayne, Weather by CustomWeather, © 2016

Note: Actual official high and low records may vary slightly from our data, if they occured in-between our weather recording intervals... More about our weather records

Advertising

Fort Wayne Weather History for the Previous 24 Hours

Scroll right to see more
 ConditionsComfort  
Time TempWeatherWind HumidityBarometerVisibility
4:54 AM
Tue, Sep 27
48 °FClear.8 mph74%29.90 "Hg10 mi
3:54 AM48 °FClear.9 mph74%29.93 "Hg10 mi
2:54 AM48 °FClear.8 mph74%29.95 "Hg10 mi
1:54 AM49 °FClear.9 mph74%29.95 "Hg10 mi
12:54 AM49 °FClear.7 mph74%29.96 "Hg10 mi
11:54 PM
Mon, Sep 26
54 °FClear.7 mph57%29.97 "Hg10 mi
10:54 PM51 °FClear.7 mph71%29.98 "Hg10 mi
9:54 PM52 °FClear.7 mph69%29.98 "Hg10 mi
8:54 PM56 °FClear.7 mph58%29.97 "Hg10 mi
7:54 PM62 °FClear.7 mph41%29.95 "Hg10 mi
6:54 PM68 °FPassing clouds.14 mph28%29.94 "Hg10 mi
5:54 PM70 °FPassing clouds.13 mph28%29.93 "Hg10 mi
4:54 PM71 °FPassing clouds.18 mph29%29.94 "Hg10 mi
3:54 PM70 °FPassing clouds.14 mph31%29.95 "Hg10 mi
2:54 PM70 °FPassing clouds.14 mph31%29.96 "Hg10 mi
1:54 PM66 °FScattered clouds.14 mph42%29.99 "Hg10 mi
12:54 PM63 °FBroken clouds.14 mph63%30.00 "Hg10 mi
11:54 AM61 °FPartly sunny.13 mph78%30.01 "Hg10 mi
10:54 AM60 °FMostly cloudy.10 mph83%29.99 "Hg10 mi
9:54 AM59 °FCloudy.12 mph90%29.99 "Hg10 mi
8:54 AM59 °FLight rain. Cloudy.12 mph93%29.99 "Hg10 mi
7:54 AM59 °FLight rain. Cloudy.9 mph93%29.96 "Hg10 mi
6:54 AM63 °FOvercast.13 mph81%29.94 "Hg10 mi
Weather by CustomWeather, © 2016

See weather overviewHow to use our weather pages